This is the latest recevied weather packets stored in our database for station/object WA4TPR. If no packets are shown the sender has not sent any weather packets the latest 10 day(s).
| Time | Temp. | Humidity | Pressure | Rain* | Wind** | Luminosity | Snow |
|---|---|---|---|---|---|---|---|
| 1778159414 | 26.67° C | 85% | 1020.7 hPa | 0 mm | - | 285 W/m² | - |
| 1778159111 | 26.11° C | 85% | 1020.5 hPa | 0 mm | - | 267 W/m² | - |
| 1778158809 | 26.11° C | 86% | 1020.5 hPa | 0 mm | - | 253 W/m² | - |
| 1778158507 | 26.11° C | 87% | 1020.4 hPa | 0 mm | - | 237 W/m² | - |
| 1778158204 | 25.56° C | 87% | 1020.3 hPa | 0 mm | - | 89 W/m² | - |
| 1778157900 | 25.56° C | 87% | 1020.6 hPa | 0 mm | - | 204 W/m² | - |
| 1778157598 | 25.56° C | 88% | 1020.5 hPa | 0 mm | - | 189 W/m² | - |
| 1778157296 | 25.56° C | 88% | 1020.6 hPa | 0 mm | - | 60 W/m² | - |
| 1778156992 | 25° C | 89% | 1020.7 hPa | 0 mm | - | 160 W/m² | - |
| 1778156687 | 25° C | 89% | 1020.6 hPa | 0 mm | - | 144 W/m² | - |
| 1778156384 | 24.44° C | 90% | 1020.6 hPa | 0 mm | - | 55 W/m² | - |
| 1778156079 | 24.44° C | 91% | 1020.6 hPa | 0 mm | - | 119 W/m² | - |
| 1778155776 | 23.89° C | 91% | 1020.4 hPa | 0 mm | - | 107 W/m² | - |
| 1778155472 | 23.89° C | 92% | 1020.5 hPa | 0 mm | - | 95 W/m² | - |
| 1778155168 | 23.33° C | 93% | 1020.5 hPa | 0 mm | - | 85 W/m² | - |
| 1778154865 | 23.33° C | 94% | 1020.5 hPa | 0 mm | - | 75 W/m² | - |
| 1778154561 | 22.78° C | 94% | 1020.6 hPa | 0 mm | - | 65 W/m² | - |
| 1778154257 | 22.22° C | 95% | 1020.5 hPa | 0 mm | - | 56 W/m² | - |
| 1778153955 | 22.22° C | 95% | 1020.7 hPa | 0 mm | - | 50 W/m² | - |
| 1778153652 | 21.67° C | 96% | 1020.3 hPa | 0 mm | - | 43 W/m² | - |
| 1778153349 | 21.67° C | 96% | 1020.5 hPa | 0 mm | - | 38 W/m² | - |
| 1778153047 | 21.11° C | 96% | 1020.5 hPa | 0 mm | - | 34 W/m² | - |
| 1778152744 | 21.11° C | 96% | 1020.3 hPa | 0 mm | - | 30 W/m² | - |
| 1778152441 | 20.56° C | 96% | 1020.3 hPa | 0 mm | - | 25 W/m² | - |
| 1778152137 | 20.56° C | 96% | 1020.2 hPa | 0 mm | - | 21 W/m² | - |
* Rain latest hour (hover to see other rain measurements)
** Current wind speed in m/s (hover to see current wind gust speed)